contact:dominique.lefevre@mio.osupytheas.fr, maurice.libes@osupytheas.fr, didier.mallarino@osupytheas.fr
Project:EMSO http://www.emso-fr.org/EMSO-France
Depth: 2436.0 m
Title:EMSO Ligure Ouest : Data MII capteur AQUADOPP
Date,Latitude,Longitude,X_East,Y_North,Z_Up,Amplitude_X,Amplitude_Y,Amplitude_Z,Batterie,SoundSpeed,Heading,Pitch,Roll,Pressure,TIS,Speed,Direction
, degrees North, degrees East, m.s-1, m.s-1,m.s-1, 1, 1, 1, Volt, m.s-1, degree, degree, degree, dbar, degree_C, m.s-1, degree
2019-11-19T00:04:03,42.805,6.029,-0.05,0.029,-0.108,101.0,107.0,98.0,13.4,1505.3,326.3,-0.7,1.8,2470.292,13.32,0.057,300.1
2019-11-19T00:07:03,42.805,6.029,-0.045,0.042,-0.068,100.0,108.0,99.0,13.3,1505.3,328.5,-0.7,1.9,2470.237,13.33,0.061,313.0
2019-11-19T00:10:03,42.805,6.029,-0.018,0.006,-0.056,101.0,108.0,97.0,13.3,1505.3,326.5,-0.7,1.8,2470.292,13.33,0.018,288.4
2019-11-19T00:13:03,42.805,6.029,-0.02,0.013,-0.073,100.0,109.0,99.0,13.4,1505.4,327.8,-0.7,1.8,2470.236,13.34,0.023,303.0
2019-11-19T00:16:03,42.805,6.029,0.005,0.004,-0.057,101.0,109.0,97.0,13.4,1505.4,323.7,-0.7,1.8,2470.273,13.34,0.006,51.3
2019-11-19T00:19:03,42.805,6.029,-0.048,0.048,-0.038,102.0,108.0,97.0,13.4,1505.4,322.7,-0.7,1.8,2470.235,13.34,0.067,315.0
2019-11-19T00:22:03,42.805,6.029,-0.023,0.034,-0.041,100.0,107.0,98.0,13.4,1505.4,327.2,-0.7,1.8,2470.244,13.34,0.041,325.9
2019-11-19T00:25:03,42.805,6.029,-0.005,0.028,-0.06,101.0,107.0,98.0,13.4,1505.4,327.9,-0.7,1.8,2470.266,13.34,0.028,349.9
2019-11-19T00:28:03,42.805,6.029,-0.017,0.018,-0.069,101.0,108.0,99.0,13.4,1505.4,324.7,-0.7,1.8,2470.253,13.34,0.024,316.6
2019-11-19T00:31:03,42.805,6.029,-0.026,0.005,-0.055,100.0,107.0,98.0,13.3,1505.4,327.2,-0.7,1.8,2470.248,13.34,0.026,280.9
2019-11-19T00:34:03,42.805,6.029,0.0,0.013,-0.026,100.0,107.0,101.0,13.4,1505.4,327.2,-0.7,1.8,2470.239,13.34,0.013,0.0
2019-11-19T00:37:03,42.805,6.029,0.001,0.019,-0.003,100.0,108.0,98.0,13.4,1505.4,325.7,-0.7,1.8,2470.27,13.34,0.019,3.0
2019-11-19T00:40:03,42.805,6.029,-0.006,0.006,-0.063,100.0,107.0,99.0,13.3,1505.4,326.5,-0.7,1.8,2470.262,13.34,0.008,315.0
2019-11-19T00:43:03,42.805,6.029,-0.008,0.013,-0.042,101.0,108.0,98.0,13.3,1505.4,323.9,-0.7,1.8,2470.261,13.34,0.015,328.4
2019-11-19T00:46:03,42.805,6.029,0.021,0.029,-0.064,100.0,107.0,98.0,13.3,1505.4,323.9,-0.7,1.8,2470.243,13.34,0.035,35.9
2019-11-19T00:49:03,42.805,6.029,0.015,0.001,-0.043,101.0,107.0,98.0,13.4,1505.4,327.2,-0.7,1.9,2470.232,13.34,0.015,86.2
2019-11-19T00:52:03,42.805,6.029,0.005,0.026,-0.025,100.0,108.0,98.0,13.3,1505.4,327.1,-0.7,1.8,2470.25,13.34,0.026,10.9
2019-11-19T00:55:03,42.805,6.029,0.002,0.028,-0.037,100.0,108.0,98.0,13.4,1505.3,323.3,-0.7,1.9,2470.258,13.33,0.028,4.1
2019-11-19T00:58:03,42.805,6.029,0.036,0.044,-0.042,100.0,107.0,97.0,13.4,1505.3,325.3,-0.7,1.9,2470.237,13.33,0.056,39.3
2019-11-19T01:04:03,42.805,6.029,0.018,0.026,-0.048,100.0,108.0,98.0,13.3,1505.3,328.2,-0.8,1.8,2470.292,13.31,0.031,34.7
2019-11-19T01:07:03,42.805,6.029,0.036,0.02,-0.014,100.0,108.0,98.0,13.3,1505.3,324.1,-0.7,1.9,2470.259,13.32,0.041,60.9
2019-11-19T01:10:03,42.805,6.029,0.005,0.047,-0.037,100.0,107.0,98.0,13.4,1505.3,324.7,-0.7,1.9,2470.265,13.32,0.047,6.1
2019-11-19T01:13:03,42.805,6.029,0.018,0.012,-0.047,102.0,107.0,97.0,13.3,1505.3,325.7,-0.7,1.8,2470.25,13.33,0.021,56.3
2019-11-19T01:16:03,42.805,6.029,0.013,0.021,-0.021,99.0,108.0,99.0,13.3,1505.3,323.4,-0.7,1.8,2470.245,13.33,0.024,31.8
2019-11-19T01:19:03,42.805,6.029,-0.008,0.026,-0.043,99.0,107.0,97.0,13.4,1505.3,326.7,-0.7,1.8,2470.241,13.33,0.027,342.9
2019-11-19T01:22:03,42.805,6.029,0.015,0.025,-0.02,100.0,108.0,98.0,13.3,1505.3,325.4,-0.7,1.8,2470.228,13.33,0.029,31.0
2019-11-19T01:25:03,42.805,6.029,0.022,0.039,-0.017,100.0,107.0,98.0,13.4,1505.3,325.5,-0.7,1.8,2470.243,13.33,0.044,29.4
2019-11-19T01:31:03,42.805,6.029,0.008,0.019,-0.051,100.0,108.0,98.0,13.4,1505.3,326.6,-0.8,1.8,2470.264,13.32,0.02,22.8
2019-11-19T01:34:03,42.805,6.029,-0.013,0.025,-0.037,100.0,108.0,98.0,13.4,1505.3,324.5,-0.7,1.9,2470.265,13.32,0.028,332.5
2019-11-19T01:37:03,42.805,6.029,0.026,0.02,-0.069,101.0,107.0,98.0,13.4,1505.3,325.8,-0.7,1.8,2470.252,13.33,0.032,52.4
2019-11-19T01:40:03,42.805,6.029,0.027,0.046,-0.014,99.0,107.0,98.0,13.4,1505.3,326.5,-0.7,1.8,2470.257,13.33,0.053,30.4
2019-11-19T01:43:03,42.805,6.029,0.001,0.046,-0.023,101.0,107.0,98.0,13.4,1505.3,325.5,-0.7,1.8,2470.26,13.33,0.046,1.2
2019-11-19T01:46:03,42.805,6.029,0.003,0.018,-0.039,99.0,107.0,97.0,13.3,1505.3,323.1,-0.7,1.8,2470.249,13.33,0.018,9.5
2019-11-19T01:49:03,42.805,6.029,-0.01,0.034,-0.045,98.0,108.0,99.0,13.4,1505.3,324.5,-0.7,1.8,2470.239,13.33,0.035,343.6
2019-11-19T01:52:03,42.805,6.029,0.022,0.018,-0.033,99.0,107.0,98.0,13.3,1505.4,323.2,-0.7,1.9,2470.238,13.34,0.028,50.7
2019-11-19T01:55:03,42.805,6.029,0.016,0.03,-0.033,100.0,108.0,97.0,13.4,1505.4,327.0,-0.7,1.9,2470.249,13.34,0.034,28.1
2019-11-19T01:58:03,42.805,6.029,0.03,0.018,-0.056,100.0,107.0,97.0,13.4,1505.4,325.0,-0.7,1.8,2470.24,13.34,0.034,59.0
2019-11-19T02:04:03,42.805,6.029,0.025,0.012,-0.034,99.0,109.0,97.0,13.4,1505.3,323.4,-0.7,1.8,2470.299,13.32,0.027,64.4
2019-11-19T02:07:03,42.805,6.029,0.027,0.03,-0.018,100.0,107.0,98.0,13.4,1505.3,326.6,-0.7,1.8,2470.241,13.33,0.04,42.0
2019-11-19T02:10:03,42.805,6.029,-0.022,0.015,-0.058,99.0,107.0,99.0,13.3,1505.3,324.5,-0.7,1.9,2470.243,13.33,0.026,304.3
2019-11-19T02:13:03,42.805,6.029,0.009,0.029,-0.061,99.0,108.0,98.0,13.4,1505.3,326.0,-0.7,1.8,2470.252,13.33,0.03,17.2
2019-11-19T02:16:03,42.805,6.029,0.014,0.028,-0.079,100.0,108.0,98.0,13.3,1505.3,326.2,-0.7,1.8,2470.26,13.33,0.031,26.6
2019-11-19T02:19:03,42.805,6.029,0.014,0.009,-0.055,98.0,108.0,99.0,13.3,1505.3,325.0,-0.7,1.8,2470.225,13.33,0.016,57.3
2019-11-19T02:22:03,42.805,6.029,0.007,0.023,-0.016,100.0,109.0,98.0,13.4,1505.3,323.8,-0.7,1.8,2470.21,13.33,0.024,16.9
2019-11-19T02:25:03,42.805,6.029,0.019,0.024,-0.036,99.0,108.0,98.0,13.4,1505.3,326.0,-0.7,1.8,2470.254,13.33,0.03,38.4
2019-11-19T02:28:03,42.805,6.029,0.0,0.03,-0.015,102.0,106.0,98.0,13.4,1505.3,325.0,-0.7,1.8,2470.197,13.33,0.03,0.0
2019-11-19T02:31:03,42.805,6.029,0.013,0.02,-0.07,102.0,108.0,97.0,13.4,1505.3,326.7,-0.7,1.8,2470.193,13.33,0.023,33.0
2019-11-19T02:34:03,42.805,6.029,-0.022,0.052,-0.07,99.0,108.0,97.0,13.4,1505.3,328.3,-0.8,1.8,2470.217,13.33,0.056,337.1
2019-11-19T02:37:03,42.805,6.029,0.009,0.015,-0.069,100.0,109.0,97.0,13.3,1505.3,328.1,-0.7,1.8,2470.241,13.33,0.017,31.0
2019-11-19T02:40:03,42.805,6.029,0.009,0.013,-0.055,99.0,109.0,98.0,13.3,1505.3,327.1,-0.7,1.8,2470.242,13.33,0.015,34.7
2019-11-19T02:43:03,42.805,6.029,-0.002,0.02,-0.051,98.0,109.0,99.0,13.3,1505.3,324.6,-0.7,1.9,2470.194,13.33,0.02,354.3
2019-11-19T02:46:03,42.805,6.029,0.01,0.027,-0.011,99.0,108.0,97.0,13.3,1505.3,324.0,-0.7,1.8,2470.239,13.33,0.028,20.3
2019-11-19T02:49:03,42.805,6.029,0.019,0.026,-0.024,99.0,109.0,99.0,13.4,1505.3,326.3,-0.7,1.8,2470.208,13.33,0.032,36.2
2019-11-19T02:52:03,42.805,6.029,0.018,0.021,-0.053,100.0,108.0,98.0,13.4,1505.3,326.6,-0.7,1.8,2470.175,13.33,0.027,40.6
2019-11-19T02:55:03,42.805,6.029,0.014,0.047,-0.03,99.0,109.0,97.0,13.4,1505.3,327.1,-0.7,1.8,2470.224,13.33,0.049,16.6
2019-11-19T02:58:03,42.805,6.029,0.017,0.044,-0.019,99.0,109.0,99.0,13.3,1505.3,326.8,-0.7,1.9,2470.171,13.33,0.047,21.1
2019-11-19T03:04:03,42.805,6.029,0.033,0.018,-0.015,98.0,109.0,102.0,13.3,1505.3,328.6,-0.7,1.8,2470.232,13.31,0.037,61.4
2019-11-19T03:07:03,42.805,6.029,0.012,0.037,-0.035,101.0,108.0,97.0,13.3,1505.3,326.7,-0.8,1.9,2470.188,13.32,0.038,18.0
2019-11-19T03:10:03,42.805,6.029,0.024,0.036,-0.012,99.0,116.0,99.0,13.3,1505.3,326.5,-0.7,1.8,2470.253,13.32,0.043,33.7
2019-11-19T03:13:03,42.805,6.029,0.028,0.03,-0.014,100.0,108.0,98.0,13.4,1505.3,326.5,-0.7,1.8,2470.217,13.33,0.041,43.0
2019-11-19T03:16:03,42.805,6.029,0.02,0.017,-0.036,101.0,108.0,98.0,13.4,1505.3,324.9,-0.7,1.8,2470.206,13.33,0.026,49.6
2019-11-19T03:19:03,42.805,6.029,-0.021,0.032,-0.057,101.0,108.0,98.0,13.4,1505.3,328.4,-0.7,1.8,2470.173,13.33,0.038,326.7
2019-11-19T03:22:03,42.805,6.029,-0.006,0.054,-0.038,99.0,108.0,98.0,13.4,1505.3,325.1,-0.7,1.8,2470.152,13.33,0.054,353.7
2019-11-19T03:25:03,42.805,6.029,0.011,0.034,-0.022,99.0,109.0,99.0,13.4,1505.3,323.8,-0.7,1.8,2470.201,13.33,0.035,17.9
2019-11-19T03:28:03,42.805,6.029,-0.01,0.025,-0.045,98.0,109.0,99.0,13.4,1505.3,328.6,-0.7,1.8,2470.194,13.33,0.026,338.2
2019-11-19T03:31:03,42.805,6.029,0.019,0.023,-0.021,101.0,107.0,98.0,13.4,1505.3,324.1,-0.7,1.8,2470.185,13.33,0.029,39.6
2019-11-19T03:34:03,42.805,6.029,0.011,0.046,-0.05,99.0,110.0,99.0,13.3,1505.3,323.2,-0.7,1.8,2470.179,13.33,0.047,13.4
2019-11-19T03:37:03,42.805,6.029,0.022,0.022,-0.029,100.0,109.0,98.0,13.4,1505.3,325.4,-0.7,1.8,2470.171,13.33,0.031,45.0
2019-11-19T03:40:03,42.805,6.029,0.017,0.041,-0.044,100.0,109.0,98.0,13.3,1505.3,326.0,-0.7,1.8,2470.191,13.33,0.044,22.5
2019-11-19T03:43:03,42.805,6.029,-0.001,0.036,-0.017,99.0,110.0,97.0,13.4,1505.3,323.9,-0.7,1.8,2470.194,13.33,0.036,358.4
2019-11-19T03:46:03,42.805,6.029,-0.002,0.035,-0.06,98.0,109.0,98.0,13.4,1505.3,325.3,-0.7,1.8,2470.22,13.33,0.035,356.7
2019-11-19T03:49:03,42.805,6.029,0.017,0.031,-0.037,100.0,108.0,99.0,13.4,1505.3,324.0,-0.7,1.8,2470.186,13.33,0.035,28.7
2019-11-19T03:52:03,42.805,6.029,0.045,0.04,-0.019,99.0,109.0,98.0,13.4,1505.3,326.5,-0.7,1.8,2470.196,13.33,0.06,48.4
2019-11-19T03:55:03,42.805,6.029,0.026,0.017,-0.075,100.0,107.0,98.0,13.3,1505.3,326.0,-0.7,1.8,2470.164,13.33,0.031,56.8
2019-11-19T03:58:03,42.805,6.029,0.016,0.019,-0.065,99.0,110.0,97.0,13.4,1505.3,324.4,-0.7,1.8,2470.226,13.33,0.024,40.1
2019-11-19T04:04:03,42.805,6.029,0.048,0.03,-0.04,99.0,109.0,98.0,13.3,1505.3,324.0,-0.7,1.8,2470.212,13.31,0.056,58.0
2019-11-19T04:07:03,42.805,6.029,0.0,0.037,-0.029,100.0,107.0,96.0,13.3,1505.3,328.2,-0.7,1.8,2470.207,13.32,0.037,0.0
2019-11-19T04:10:03,42.805,6.029,0.035,0.024,-0.027,99.0,108.0,98.0,13.4,1505.3,326.8,-0.7,1.8,2470.162,13.32,0.042,55.6
2019-11-19T04:13:03,42.805,6.029,0.041,0.031,-0.029,99.0,109.0,98.0,13.3,1505.3,326.1,-0.7,1.8,2470.237,13.33,0.051,52.9
2019-11-19T04:16:03,42.805,6.029,0.027,0.041,-0.017,99.0,108.0,98.0,13.3,1505.3,324.0,-0.7,1.8,2470.237,13.33,0.049,33.4
2019-11-19T04:19:03,42.805,6.029,0.024,0.03,-0.044,99.0,109.0,97.0,13.4,1505.3,328.1,-0.7,1.8,2470.212,13.33,0.038,38.7
2019-11-19T04:22:03,42.805,6.029,0.039,-0.001,-0.043,99.0,109.0,98.0,13.3,1505.3,324.5,-0.7,1.8,2470.147,13.33,0.039,91.5
2019-11-19T04:25:03,42.805,6.029,0.006,0.017,-0.076,100.0,108.0,97.0,13.4,1505.3,326.0,-0.7,1.8,2470.192,13.33,0.018,19.4
2019-11-19T04:28:03,42.805,6.029,0.036,0.042,0.018,99.0,107.0,98.0,13.4,1505.3,328.2,-0.7,1.8,2470.151,13.33,0.055,40.6
2019-11-19T04:31:03,42.805,6.029,0.007,0.038,-0.034,97.0,110.0,98.0,13.4,1505.3,323.0,-0.7,1.8,2470.234,13.33,0.038,10.4
2019-11-19T04:34:03,42.805,6.029,0.012,0.032,0.0,99.0,107.0,99.0,13.4,1505.3,322.8,-0.7,1.8,2470.157,13.33,0.034,20.6
2019-11-19T04:37:03,42.805,6.029,0.028,0.029,-0.039,99.0,109.0,98.0,13.4,1505.3,324.5,-0.7,1.8,2470.139,13.33,0.04,44.0
2019-11-19T04:40:03,42.805,6.029,0.046,0.017,-0.02,99.0,108.0,98.0,13.3,1505.3,322.9,-0.7,1.8,2470.192,13.33,0.049,69.7
2019-11-19T04:43:03,42.805,6.029,0.01,0.033,-0.032,100.0,109.0,98.0,13.4,1505.3,325.0,-0.7,1.8,2470.185,13.33,0.034,16.9
2019-11-19T04:46:03,42.805,6.029,0.01,0.023,-0.067,100.0,109.0,98.0,13.4,1505.3,326.5,-0.7,1.8,2470.195,13.33,0.025,23.5
2019-11-19T04:49:03,42.805,6.029,0.022,0.033,-0.006,100.0,110.0,98.0,13.3,1505.3,325.6,-0.7,1.8,2470.171,13.33,0.039,33.7
2019-11-19T04:52:03,42.805,6.029,0.043,0.014,-0.01,100.0,112.0,98.0,13.4,1505.3,324.2,-0.7,1.8,2470.173,13.33,0.045,72.0
2019-11-19T04:55:03,42.805,6.029,0.018,0.018,-0.028,98.0,108.0,99.0,13.4,1505.3,324.8,-0.7,1.8,2470.186,13.33,0.025,45.0
2019-11-19T04:58:03,42.805,6.029,0.022,0.023,-0.064,100.0,109.0,97.0,13.4,1505.3,324.5,-0.8,1.8,2470.201,13.33,0.031,43.7
2019-11-19T05:04:03,42.805,6.029,0.035,0.017,-0.034,100.0,109.0,99.0,13.4,1505.3,323.1,-0.7,1.8,2470.19,13.31,0.038,64.1
2019-11-19T05:07:03,42.805,6.029,-0.018,0.025,-0.069,98.0,109.0,97.0,13.4,1505.3,327.6,-0.7,1.8,2470.24,13.31,0.03,324.2
2019-11-19T05:10:03,42.805,6.029,0.041,0.021,-0.064,100.0,109.0,97.0,13.4,1505.3,324.7,-0.7,1.8,2470.178,13.32,0.046,62.9
2019-11-19T05:13:03,42.805,6.029,0.004,0.024,-0.069,99.0,109.0,98.0,13.4,1505.3,327.2,-0.7,1.9,2470.202,13.32,0.024,9.5
2019-11-19T05:16:03,42.805,6.029,0.012,0.037,-0.004,99.0,108.0,98.0,13.4,1505.3,324.9,-0.7,1.9,2470.187,13.32,0.038,18.0
2019-11-19T05:19:03,42.805,6.029,0.01,0.023,-0.069,99.0,108.0,97.0,13.4,1505.3,324.6,-0.7,1.8,2470.153,13.32,0.025,23.5
2019-11-19T05:22:03,42.805,6.029,0.009,0.016,-0.062,100.0,108.0,97.0,13.4,1505.3,325.7,-0.7,1.8,2470.184,13.33,0.018,29.4
2019-11-19T05:25:03,42.805,6.029,0.037,0.033,-0.025,99.0,108.0,98.0,13.4,1505.3,328.3,-0.7,1.8,2470.168,13.33,0.049,48.3
2019-11-19T05:28:03,42.805,6.029,0.015,0.047,-0.043,99.0,109.0,98.0,13.4,1505.3,323.4,-0.7,1.8,2470.149,13.33,0.049,17.7
2019-11-19T05:31:03,42.805,6.029,0.015,0.038,-0.076,99.0,109.0,98.0,13.3,1505.3,325.5,-0.7,1.8,2470.198,13.33,0.04,21.5
2019-11-19T05:34:03,42.805,6.029,0.011,0.019,-0.083,100.0,108.0,98.0,13.4,1505.3,325.1,-0.8,1.8,2470.203,13.33,0.021,30.1
2019-11-19T05:37:03,42.805,6.029,0.017,0.041,-0.013,99.0,108.0,98.0,13.4,1505.3,324.7,-0.7,1.8,2470.169,13.33,0.044,22.5
2019-11-19T05:40:03,42.805,6.029,0.0,0.025,-0.089,98.0,108.0,99.0,13.4,1505.3,328.4,-0.7,1.8,2470.14,13.33,0.025,0.0
2019-11-19T05:43:03,42.805,6.029,0.023,0.031,-0.039,99.0,108.0,98.0,13.3,1505.3,327.4,-0.7,1.8,2470.194,13.33,0.038,36.6
2019-11-19T05:46:03,42.805,6.029,0.035,0.04,0.026,97.0,107.0,99.0,13.3,1505.3,324.6,-0.8,1.8,2470.153,13.33,0.053,41.2
2019-11-19T05:49:03,42.805,6.029,0.02,0.03,-0.071,99.0,108.0,98.0,13.3,1505.3,323.2,-0.7,1.8,2470.169,13.33,0.036,33.7
2019-11-19T05:52:03,42.805,6.029,0.01,0.039,-0.063,99.0,109.0,98.0,13.4,1505.3,323.8,-0.7,1.8,2470.153,13.32,0.04,14.4
2019-11-19T05:55:03,42.805,6.029,0.033,0.024,-0.042,99.0,108.0,97.0,13.4,1505.3,327.6,-0.7,1.8,2470.176,13.32,0.04,54.0
2019-11-19T05:58:03,42.805,6.029,0.041,0.007,-0.069,98.0,109.0,98.0,13.3,1505.3,326.1,-0.7,1.8,2470.181,13.32,0.041,80.3
2019-11-19T06:04:03,42.805,6.029,0.011,0.037,-0.057,98.0,108.0,98.0,13.4,1505.2,327.6,-0.7,1.8,2470.185,13.3,0.038,16.6
2019-11-19T06:07:03,42.805,6.029,0.04,0.03,-0.055,98.0,109.0,98.0,13.4,1505.3,324.1,-0.7,1.9,2470.198,13.31,0.05,53.1
2019-11-19T06:10:03,42.805,6.029,0.017,0.023,-0.024,99.0,108.0,97.0,13.3,1505.3,323.6,-0.7,1.8,2470.169,13.32,0.028,36.5
2019-11-19T06:13:03,42.805,6.029,0.03,0.032,-0.033,99.0,108.0,97.0,13.3,1505.3,326.1,-0.7,1.8,2470.196,13.32,0.043,43.1
2019-11-19T06:16:03,42.805,6.029,0.036,0.02,-0.047,99.0,107.0,97.0,13.4,1505.3,326.3,-0.7,1.9,2470.208,13.32,0.041,60.9
2019-11-19T06:19:03,42.805,6.029,0.023,0.028,-0.044,101.0,106.0,98.0,13.3,1505.3,324.3,-0.7,1.8,2470.203,13.32,0.036,39.4
2019-11-19T06:22:03,42.805,6.029,0.053,0.014,-0.009,100.0,107.0,98.0,13.4,1505.3,328.4,-0.7,1.8,2470.181,13.33,0.054,75.2
2019-11-19T06:25:03,42.805,6.029,0.036,0.031,-0.064,100.0,108.0,98.0,13.4,1505.3,324.6,-0.7,1.8,2470.152,13.33,0.047,49.3
2019-11-19T06:28:03,42.805,6.029,0.022,0.022,-0.042,99.0,107.0,98.0,13.4,1505.3,326.0,-0.7,1.8,2470.177,13.33,0.031,45.0
2019-11-19T06:31:03,42.805,6.029,0.043,0.037,-0.019,100.0,108.0,97.0,13.4,1505.3,323.4,-0.7,1.8,2470.176,13.33,0.056,49.3
2019-11-19T06:34:03,42.805,6.029,0.031,0.016,-0.032,99.0,107.0,98.0,13.4,1505.3,328.1,-0.7,1.8,2470.179,13.33,0.034,62.7
2019-11-19T06:37:03,42.805,6.029,0.06,0.026,-0.01,99.0,107.0,98.0,13.4,1505.3,326.5,-0.7,1.8,2470.195,13.33,0.065,66.6
2019-11-19T06:40:03,42.805,6.029,0.049,0.027,-0.026,100.0,104.0,98.0,13.4,1505.3,326.2,-0.7,1.8,2470.168,13.33,0.055,61.1
2019-11-19T06:43:03,42.805,6.029,0.039,0.021,-0.048,100.0,106.0,97.0,13.4,1505.3,325.2,-0.7,1.8,2470.154,13.33,0.044,61.7
2019-11-19T06:46:03,42.805,6.029,0.045,0.003,-0.03,98.0,106.0,98.0,13.4,1505.3,323.6,-0.7,1.8,2470.161,13.33,0.045,86.2
2019-11-19T06:49:03,42.805,6.029,0.049,0.027,-0.048,99.0,106.0,97.0,13.4,1505.3,325.1,-0.7,1.9,2470.184,13.33,0.055,61.1
2019-11-19T06:52:03,42.805,6.029,0.056,0.008,-0.019,98.0,107.0,98.0,13.4,1505.3,323.9,-0.7,1.8,2470.153,13.33,0.056,81.9
2019-11-19T06:55:03,42.805,6.029,0.062,0.044,0.014,99.0,106.0,98.0,13.4,1505.3,325.4,-0.7,1.8,2470.173,13.33,0.076,54.6
2019-11-19T06:58:03,42.805,6.029,0.036,0.032,-0.032,99.0,107.0,97.0,13.3,1505.3,328.4,-0.7,1.8,2470.214,13.33,0.048,48.4
2019-11-19T07:04:03,42.805,6.029,0.09,0.003,-0.023,99.0,108.0,98.0,13.4,1505.3,325.9,-0.7,1.9,2470.256,13.31,0.09,88.1
2019-11-19T07:07:03,42.805,6.029,0.06,0.029,-0.049,98.0,107.0,97.0,13.4,1505.3,325.0,-0.7,1.9,2470.193,13.31,0.066,64.2
2019-11-19T07:10:03,42.805,6.029,0.058,0.01,-0.056,99.0,106.0,99.0,13.4,1505.3,326.5,-0.7,1.8,2470.198,13.32,0.058,80.2
2019-11-19T07:13:03,42.805,6.029,0.055,-0.001,-0.024,98.0,106.0,98.0,13.4,1505.3,327.7,-0.7,1.8,2470.192,13.32,0.055,91.0
2019-11-19T07:16:03,42.805,6.029,0.044,0.024,-0.015,101.0,105.0,97.0,13.4,1505.3,325.0,-0.7,1.8,2470.185,13.32,0.05,61.4
2019-11-19T07:19:03,42.805,6.029,0.038,0.042,-0.023,99.0,106.0,98.0,13.3,1505.3,326.6,-0.7,1.8,2470.207,13.32,0.056,42.1
2019-11-19T07:22:03,42.805,6.029,0.035,0.012,-0.058,98.0,106.0,98.0,13.4,1505.3,327.8,-0.7,1.8,2470.233,13.33,0.037,71.1
2019-11-19T07:25:03,42.805,6.029,0.04,0.034,-0.015,98.0,106.0,97.0,13.4,1505.3,323.3,-0.7,1.8,2470.189,13.33,0.052,49.6
2019-11-19T07:28:03,42.805,6.029,0.073,0.014,-0.03,98.0,106.0,97.0,13.4,1505.3,324.8,-0.7,1.8,2470.19,13.33,0.074,79.1
2019-11-19T07:31:03,42.805,6.029,0.038,0.021,-0.046,99.0,105.0,98.0,13.4,1505.3,326.9,-0.7,1.8,2470.216,13.33,0.043,61.1
2019-11-19T07:34:03,42.805,6.029,0.037,0.04,-0.027,99.0,105.0,98.0,13.4,1505.3,326.0,-0.7,1.8,2470.231,13.33,0.054,42.8
2019-11-19T07:37:03,42.805,6.029,0.035,0.03,-0.026,99.0,106.0,98.0,13.4,1505.3,327.8,-0.7,1.8,2470.212,13.33,0.046,49.4
2019-11-19T07:40:03,42.805,6.029,0.036,0.011,-0.061,100.0,106.0,97.0,13.4,1505.3,327.8,-0.7,1.9,2470.205,13.33,0.037,73.0
2019-11-19T07:43:03,42.805,6.029,0.025,0.014,-0.083,99.0,106.0,98.0,13.4,1505.3,325.1,-0.7,1.8,2470.166,13.33,0.028,60.7
2019-11-19T07:46:03,42.805,6.029,0.021,0.044,-0.047,98.0,105.0,98.0,13.4,1505.3,326.4,-0.7,1.9,2470.163,13.33,0.048,25.5
2019-11-19T07:49:03,42.805,6.029,0.032,0.009,-0.068,98.0,106.0,97.0,13.4,1505.3,323.0,-0.7,1.8,2470.205,13.33,0.033,74.3
2019-11-19T07:52:03,42.805,6.029,0.092,0.028,-0.022,99.0,105.0,98.0,13.4,1505.3,323.0,-0.7,1.8,2470.195,13.33,0.096,73.1
2019-11-19T07:55:03,42.805,6.029,0.002,0.027,-0.051,99.0,106.0,99.0,13.4,1505.3,326.2,-0.7,1.9,2470.226,13.33,0.027,4.2
2019-11-19T07:58:03,42.805,6.029,-0.012,0.017,-0.076,98.0,106.0,98.0,13.3,1505.3,326.3,-0.7,1.9,2470.176,13.33,0.02,324.8
2019-11-19T08:04:03,42.805,6.029,-0.046,0.031,-0.105,99.0,107.0,98.0,13.3,1505.3,324.5,-0.7,1.8,2470.287,13.31,0.055,304.0
2019-11-19T08:07:03,42.805,6.029,-0.011,0.026,-0.094,99.0,107.0,97.0,13.4,1505.3,327.0,-0.7,1.8,2470.228,13.32,0.028,337.1
2019-11-19T08:10:03,42.805,6.029,0.019,0.014,-0.046,99.0,108.0,98.0,13.3,1505.3,322.9,-0.7,1.8,2470.244,13.32,0.023,53.6
2019-11-19T08:13:03,42.805,6.029,-0.022,0.044,-0.089,98.0,107.0,98.0,13.4,1505.3,327.8,-0.7,1.8,2470.231,13.32,0.049,333.4
2019-11-19T08:16:03,42.805,6.029,0.012,0.022,-0.072,99.0,107.0,98.0,13.3,1505.3,326.7,-0.6,1.8,2470.238,13.33,0.025,28.6
2019-11-19T08:19:03,42.805,6.029,-0.008,0.029,-0.092,99.0,106.0,97.0,13.3,1505.3,325.3,-0.7,1.8,2470.246,13.33,0.03,344.6
2019-11-19T08:22:03,42.805,6.029,0.007,-0.002,-0.084,100.0,106.0,99.0,13.3,1505.3,325.5,-0.7,1.8,2470.271,13.33,0.007,105.9
2019-11-19T08:25:03,42.805,6.029,0.013,0.025,-0.063,99.0,106.0,98.0,13.4,1505.3,325.0,-0.7,1.8,2470.25,13.33,0.028,27.5
2019-11-19T08:28:03,42.805,6.029,0.026,0.022,-0.085,98.0,107.0,97.0,13.4,1505.3,327.3,-0.7,1.8,2470.22,13.33,0.034,49.8
2019-11-19T08:31:03,42.805,6.029,0.033,0.032,-0.03,100.0,106.0,98.0,13.4,1505.3,325.4,-0.7,1.8,2470.242,13.33,0.045,45.9
2019-11-19T08:34:03,42.805,6.029,0.069,0.034,-0.031,100.0,106.0,98.0,13.3,1505.3,324.5,-0.7,1.9,2470.213,13.33,0.076,63.8
2019-11-19T08:37:03,42.805,6.029,0.017,0.025,-0.039,101.0,106.0,98.0,13.3,1505.3,324.9,-0.7,1.8,2470.207,13.33,0.03,34.2
2019-11-19T08:40:03,42.805,6.029,-0.008,0.015,-0.108,99.0,105.0,96.0,13.4,1505.3,325.3,-0.7,1.8,2470.254,13.33,0.017,331.9
2019-11-19T08:43:03,42.805,6.029,0.023,0.021,-0.067,101.0,106.0,97.0,13.3,1505.3,323.6,-0.7,1.8,2470.255,13.33,0.031,47.6
2019-11-19T08:46:03,42.805,6.029,0.057,0.022,-0.006,100.0,106.0,97.0,13.4,1505.3,326.8,-0.7,1.8,2470.24,13.33,0.061,68.9
2019-11-19T08:49:03,42.805,6.029,0.011,0.027,-0.051,100.0,106.0,97.0,13.4,1505.3,324.3,-0.7,1.8,2470.257,13.33,0.029,22.2
2019-11-19T08:52:03,42.805,6.029,0.012,0.02,-0.052,99.0,107.0,98.0,13.3,1505.3,326.3,-0.7,1.8,2470.263,13.33,0.023,31.0
2019-11-19T08:55:03,42.805,6.029,0.004,0.014,-0.079,99.0,104.0,98.0,13.4,1505.3,326.7,-0.7,1.9,2470.251,13.33,0.014,15.9
2019-11-19T08:58:03,42.805,6.029,0.037,-0.001,-0.069,100.0,105.0,98.0,13.4,1505.3,326.3,-0.7,1.8,2470.248,13.33,0.037,91.5
2019-11-19T09:04:03,42.805,6.029,0.02,0.013,0.011,99.0,105.0,99.0,13.4,1505.3,323.5,-0.8,1.8,2470.28,13.31,0.023,57.0
2019-11-19T09:07:03,42.805,6.029,0.037,0.021,-0.038,99.0,105.0,97.0,13.4,1505.3,327.3,-0.7,1.9,2470.241,13.32,0.042,60.4
2019-11-19T09:10:03,42.805,6.029,-0.005,0.016,-0.039,98.0,106.0,98.0,13.4,1505.3,324.3,-0.7,1.8,2470.252,13.32,0.016,342.6
2019-11-19T09:13:03,42.805,6.029,0.025,0.007,-0.055,99.0,105.0,99.0,13.4,1505.3,328.3,-0.7,1.8,2470.287,13.33,0.025,74.4
2019-11-19T09:16:03,42.805,6.029,0.018,0.014,-0.07,99.0,105.0,98.0,13.4,1505.3,326.2,-0.7,1.8,2470.299,13.33,0.022,52.1
2019-11-19T09:19:03,42.805,6.029,-0.005,0.004,-0.09,98.0,108.0,101.0,13.4,1505.3,328.6,-0.7,1.9,2470.299,13.33,0.006,308.7
2019-11-19T09:22:03,42.805,6.029,0.02,0.038,-0.025,99.0,105.0,99.0,13.3,1505.3,326.2,-0.7,1.9,2470.285,13.33,0.042,27.8
2019-11-19T09:25:03,42.805,6.029,0.0,0.031,-0.06,99.0,107.0,99.0,13.4,1505.3,323.5,-0.7,1.9,2470.274,13.33,0.03,0.0
2019-11-19T09:28:03,42.805,6.029,0.027,0.001,-0.034,98.0,106.0,97.0,13.3,1505.3,324.2,-0.7,1.8,2470.315,13.33,0.027,87.9
2019-11-19T09:31:03,42.805,6.029,0.024,0.01,-0.039,99.0,107.0,98.0,13.4,1505.3,326.0,-0.7,1.8,2470.281,13.33,0.026,67.4
2019-11-19T09:34:03,42.805,6.029,0.024,0.016,-0.083,100.0,106.0,97.0,13.4,1505.3,323.0,-0.7,1.9,2470.292,13.33,0.028,56.3
2019-11-19T09:37:03,42.805,6.029,-0.006,0.013,-0.143,99.0,107.0,98.0,13.4,1505.3,327.9,-0.7,1.8,2470.305,13.33,0.014,335.2
2019-11-19T09:40:03,42.805,6.029,0.014,0.015,-0.05,98.0,107.0,97.0,13.3,1505.3,325.8,-0.7,1.8,2470.299,13.33,0.02,43.0
2019-11-19T09:43:03,42.805,6.029,0.058,0.01,-0.028,98.0,108.0,98.0,13.4,1505.3,327.0,-0.7,1.9,2470.263,13.33,0.058,80.2
2019-11-19T09:46:03,42.805,6.029,0.034,0.015,-0.031,99.0,106.0,97.0,13.4,1505.3,327.7,-0.7,1.9,2470.272,13.33,0.037,66.2
2019-11-19T09:49:03,42.805,6.029,-0.002,0.011,-0.068,98.0,106.0,98.0,13.4,1505.3,323.3,-0.7,1.8,2470.292,13.33,0.011,349.7
2019-11-19T09:52:03,42.805,6.029,0.036,-0.002,-0.038,99.0,107.0,100.0,13.4,1505.4,324.9,-0.7,1.8,2470.301,13.34,0.036,93.2
2019-11-19T09:55:03,42.805,6.029,0.042,0.001,-0.049,100.0,105.0,99.0,13.3,1505.4,326.1,-0.7,1.8,2470.277,13.34,0.042,88.6
2019-11-19T09:58:03,42.805,6.029,0.057,0.036,-0.006,100.0,106.0,98.0,13.4,1505.4,323.4,-0.7,1.8,2470.282,13.34,0.067,57.7
2019-11-19T10:04:03,42.805,6.029,0.04,0.015,-0.013,99.0,106.0,98.0,13.3,1505.3,326.8,-0.8,1.8,2470.338,13.32,0.042,69.4
2019-11-19T10:07:03,42.805,6.029,0.033,0.038,-0.053,99.0,106.0,96.0,13.3,1505.3,323.8,-0.7,1.8,2470.335,13.32,0.05,41.0
2019-11-19T10:10:03,42.805,6.029,0.036,0.044,-0.006,99.0,106.0,97.0,13.4,1505.3,324.4,-0.7,1.8,2470.332,13.33,0.056,39.3
2019-11-19T10:13:03,42.805,6.029,0.023,0.001,-0.049,97.0,106.0,99.0,13.4,1505.3,328.2,-0.7,1.9,2470.314,13.33,0.023,87.5
2019-11-19T10:16:03,42.805,6.029,-0.018,0.019,-0.083,100.0,104.0,98.0,13.4,1505.3,323.8,-0.7,1.8,2470.332,13.33,0.026,316.5